Weather History for KHJH - October, 2013

Change the Weather History Date:

Friday, October 4, 2013

  Actual Average Record
Temperature  
Mean Temperature 68 °F -  
Max Temperature 88 °F 73 °F 94 °F (1954)
Min Temperature 49 °F 44 °F 31 °F (1968)
Cooling Degree Days 4    
Growing Degree Days 18 (Base 50)    
Moisture  
Dew Point 56 °F    
Average Humidity 63    
Maximum Humidity 90    
Minimum Humidity 32    
Precipitation  
Precipitation 0.00 in - - ()
Sea Level Pressure  
Sea Level Pressure 29.74 in    
Wind  
Wind Speed 10 mph (South)    
Max Wind Speed 23 mph    
Max Gust Speed 32 mph    
Visibility 10 miles    
Events      
Averages and records for this station are not official NWS values.
T = Trace of Precipitation, MM = Missing Value Source: NWS Daily Summary

Daily Weather History Graph

Daily Weather History Graph

Search for Another Location

Airport or City:

Trip Planner

Search our weather history database for the weather conditions in past years. The results will help you decide how hot, cold, wet, or windy it might be!

Date:

Astronomy

Oct. 04, 2013 Rise Set
Actual Time 7:29 AM CDT 7:07 PM CDT
Civil Twilight 7:02 AM CDT 7:34 PM CDT
Nautical Twilight 6:31 AM CDT 8:05 PM CDT
Astronomical Twilight 5:59 AM CDT 8:37 PM CDT
Moon 7:06 AM CDT 6:50 PM CDT
Length of Visible Light 12h 31m
Length of Day
11h 37m
Waning Crescent, 0% of the Moon is Illuminated
Oct 4
Waning Crescent
Oct 4
New
Oct 11
First Quarter
Oct 18
Full
Oct 26
Last Quarter

Hourly Weather History & Observations

Time (CDT) Temp. Heat Index Dew Point Humidity Pressure Visibility Wind Dir Wind Speed Gust Speed Precip Events Conditions
12:15 AM 68.9 °F - 61.0 °F 76% 29.71 in 10.0 mi ESE 4.6 mph - N/A   Clear
12:35 AM 69.1 °F - 61.0 °F 75% 29.70 in 10.0 mi ESE 5.8 mph - N/A   Clear
12:55 AM 68.0 °F - 61.0 °F 78% 29.70 in 10.0 mi ESE 5.8 mph - N/A   Clear
1:15 AM 67.8 °F - 62.2 °F 82% 29.69 in 10.0 mi ESE 6.9 mph - N/A   Clear
1:35 AM 68.4 °F - 63.0 °F 83% 29.68 in 10.0 mi ESE 6.9 mph - N/A   Clear
1:55 AM 69.1 °F - 63.7 °F 83% 29.68 in 10.0 mi ESE 6.9 mph - N/A   Clear
2:15 AM 69.3 °F - 64.0 °F 83% 29.68 in 10.0 mi ESE 5.8 mph - N/A   Clear
2:35 AM 69.1 °F - 64.4 °F 85% 29.68 in 10.0 mi ESE 3.5 mph - N/A   Clear
2:55 AM 70.2 °F - 65.1 °F 84% 29.68 in 10.0 mi ESE 4.6 mph - N/A   Clear
3:15 AM 70.7 °F - 65.3 °F 83% 29.68 in 10.0 mi ESE 4.6 mph - N/A   Clear
3:35 AM 70.2 °F - 65.3 °F 85% 29.68 in 10.0 mi East 3.5 mph - N/A   Clear
3:55 AM 68.4 °F - 64.6 °F 88% 29.68 in 10.0 mi ENE 4.6 mph - N/A   Clear
4:15 AM 68.0 °F - 64.0 °F 87% 29.68 in 10.0 mi East 5.8 mph - N/A   Clear
4:35 AM 67.5 °F - 64.0 °F 89% 29.68 in 10.0 mi East 6.9 mph - N/A   Clear
4:55 AM 68.0 °F - 64.6 °F 89% 29.67 in 10.0 mi East 5.8 mph - N/A   Clear
5:15 AM 67.8 °F - 64.4 °F 89% 29.68 in 10.0 mi East 3.5 mph - N/A   Clear
5:35 AM 67.6 °F - 64.6 °F 90% 29.68 in 7.0 mi East 3.5 mph - N/A   Clear
5:55 AM 68.5 °F - 64.9 °F 88% 29.68 in 10.0 mi East 5.8 mph - N/A   Clear
6:15 AM 68.9 °F - 64.9 °F 87% 29.69 in 10.0 mi East 6.9 mph - N/A   Clear
6:35 AM 69.1 °F - 64.9 °F 87% 29.69 in 10.0 mi East 6.9 mph - N/A   Clear
6:55 AM 68.4 °F - 64.8 °F 88% 29.69 in 10.0 mi East 8.1 mph - N/A   Clear
7:35 AM 68.0 °F - 64.8 °F 89% 29.69 in 7.0 mi East 8.1 mph - N/A   Mostly Cloudy
7:55 AM 68.5 °F - 65.1 °F 89% 29.70 in 7.0 mi East 5.8 mph - N/A   Overcast
8:15 AM 69.1 °F - 65.3 °F 88% 29.70 in 10.0 mi East 6.9 mph - N/A   Overcast
8:35 AM 69.4 °F - 65.7 °F 88% 29.70 in 10.0 mi East 6.9 mph - N/A   Overcast
8:55 AM 70.2 °F - 66.2 °F 87% 29.69 in 10.0 mi ESE 5.8 mph - N/A   Mostly Cloudy
9:15 AM 72.5 °F - 67.1 °F 83% 29.69 in 10.0 mi ESE 6.9 mph - N/A   Scattered Clouds
9:35 AM 73.6 °F - 67.5 °F 81% 29.69 in 10.0 mi SE 6.9 mph - N/A   Scattered Clouds
9:55 AM 75.0 °F - 67.3 °F 77% 29.68 in 10.0 mi SE 15.0 mph 19.6 mph N/A   Clear
10:15 AM 76.3 °F - 67.3 °F 74% 29.68 in 10.0 mi SSE 15.0 mph 18.4 mph N/A   Clear
10:35 AM 78.6 °F - 66.9 °F 67% 29.67 in 10.0 mi SSE 13.8 mph 21.9 mph N/A   Scattered Clouds
10:55 AM 79.9 °F - 66.4 °F 63% 29.67 in 10.0 mi South 16.1 mph 23.0 mph N/A   Scattered Clouds
11:15 AM 80.1 °F 81.9 °F 65.1 °F 60% 29.68 in 10.0 mi South 17.3 mph 24.2 mph N/A   Scattered Clouds
11:35 AM 80.6 °F 82.3 °F 64.8 °F 58% 29.68 in 10.0 mi South 17.3 mph 24.2 mph N/A   Mostly Cloudy
11:55 AM 81.3 °F 82.9 °F 64.4 °F 56% 29.67 in 10.0 mi South 19.6 mph 27.6 mph N/A   Mostly Cloudy
12:15 PM 82.8 °F 84.0 °F 63.7 °F 52% 29.65 in 10.0 mi South 23.0 mph 28.8 mph N/A   Scattered Clouds
12:35 PM 83.5 °F 84.7 °F 63.9 °F 51% 29.65 in 10.0 mi South 18.4 mph 28.8 mph N/A   Scattered Clouds
12:55 PM 84.6 °F 85.6 °F 63.5 °F 49% 29.65 in 10.0 mi South 16.1 mph 27.6 mph N/A   Scattered Clouds
1:15 PM 83.8 °F 84.7 °F 62.8 °F 49% 29.66 in 10.0 mi South 18.4 mph 26.5 mph N/A   Mostly Cloudy
1:35 PM 85.3 °F 85.7 °F 61.5 °F 45% 29.65 in 10.0 mi SSW 17.3 mph 28.8 mph N/A   Mostly Cloudy
1:55 PM 86.2 °F 85.9 °F 59.7 °F 41% 29.64 in 10.0 mi SSW 21.9 mph 29.9 mph N/A   Mostly Cloudy
2:15 PM 86.4 °F 85.9 °F 59.4 °F 40% 29.63 in 10.0 mi SSW 21.9 mph 29.9 mph N/A   Mostly Cloudy
2:35 PM 85.8 °F 85.0 °F 57.9 °F 39% 29.63 in 10.0 mi SSW 23.0 mph 29.9 mph N/A   Mostly Cloudy
2:55 PM 88.2 °F 86.3 °F 55.0 °F 32% 29.63 in 10.0 mi WSW 21.9 mph 32.2 mph N/A   Scattered Clouds
3:15 PM 83.8 °F 82.4 °F 53.2 °F 35% 29.66 in 10.0 mi WSW 19.6 mph 28.8 mph N/A   Scattered Clouds
3:35 PM 82.9 °F - 51.8 °F 34% 29.67 in 10.0 mi WSW 18.4 mph 26.5 mph N/A   Clear
3:55 PM 82.4 °F - 51.3 °F 34% 29.68 in 10.0 mi WSW 20.7 mph 27.6 mph N/A   Clear
4:15 PM 80.8 °F 80.4 °F 54.0 °F 39% 29.69 in 10.0 mi West 17.3 mph 26.5 mph N/A   Clear
4:35 PM 79.3 °F - 54.3 °F 42% 29.70 in 10.0 mi West 18.4 mph 26.5 mph N/A   Clear
4:55 PM 77.9 °F - 55.0 °F 45% 29.71 in 10.0 mi West 17.3 mph 27.6 mph N/A   Clear
5:15 PM 76.3 °F - 54.3 °F 46% 29.73 in 10.0 mi West 18.4 mph 28.8 mph N/A   Clear
5:35 PM 73.6 °F - 52.0 °F 47% 29.75 in 10.0 mi West 18.4 mph 28.8 mph N/A   Clear
5:55 PM 71.4 °F - 48.9 °F 45% 29.76 in 10.0 mi West 19.6 mph 29.9 mph N/A   Clear
6:15 PM 69.6 °F - 48.0 °F 46% 29.77 in 10.0 mi West 17.3 mph 24.2 mph N/A   Clear
6:35 PM 67.5 °F - 43.7 °F 42% 29.80 in 10.0 mi West 16.1 mph 26.5 mph N/A   Clear
6:55 PM 65.3 °F - 42.8 °F 44% 29.83 in 10.0 mi West 16.1 mph 25.3 mph N/A   Clear
7:15 PM 63.1 °F - 40.3 °F 43% 29.85 in 10.0 mi West 17.3 mph 24.2 mph N/A   Clear
7:35 PM 61.0 °F - 37.9 °F 42% 29.87 in 10.0 mi West 11.5 mph 24.2 mph N/A   Clear
7:55 PM 59.4 °F - 37.2 °F 44% 29.88 in 10.0 mi West 16.1 mph 23.0 mph N/A   Clear
8:15 PM 58.5 °F - 35.8 °F 43% 29.89 in 10.0 mi West 15.0 mph 24.2 mph N/A   Clear
8:35 PM 56.8 °F - 35.8 °F 45% 29.90 in 10.0 mi West 16.1 mph 24.2 mph N/A   Clear
8:55 PM 55.8 °F - 35.6 °F 47% 29.91 in 10.0 mi West 13.8 mph 18.4 mph N/A   Clear
9:15 PM 54.5 °F - 35.4 °F 49% 29.93 in 10.0 mi West 13.8 mph 23.0 mph N/A   Clear
9:35 PM 53.2 °F - 35.8 °F 52% 29.94 in 10.0 mi West 13.8 mph 19.6 mph N/A   Clear
9:55 PM 52.2 °F - 35.1 °F 52% 29.95 in 10.0 mi West 13.8 mph 23.0 mph N/A   Clear
10:15 PM 51.3 °F - 34.5 °F 53% 29.96 in 10.0 mi WNW 16.1 mph 20.7 mph N/A   Clear
10:35 PM 50.9 °F - 34.2 °F 53% 29.96 in 10.0 mi WNW 15.0 mph 21.9 mph N/A   Mostly Cloudy
10:55 PM 50.2 °F - 34.0 °F 54% 29.96 in 10.0 mi WNW 13.8 mph 24.2 mph N/A   Overcast
11:15 PM 49.5 °F - 33.3 °F 54% 29.97 in 10.0 mi WNW 11.5 mph 19.6 mph N/A   Overcast
11:35 PM 49.1 °F - 32.7 °F 53% 29.98 in 10.0 mi WNW 15.0 mph 23.0 mph N/A   Mostly Cloudy
11:55 PM 49.1 °F - 32.2 °F 52% 30.00 in 10.0 mi WNW 10.4 mph 20.7 mph N/A   Mostly Cloudy